| time (UTC) | temp F | wind direction | speed knots | gust knots | rain 1hr in | rain 24hr in | rain mn in | humidity % | barometer mb |
| 20260506051023 | 67 | 132 | 3.5 | 6.1 | 0.00 | 0.00 | 0.00 | 74 | 1013.7 |
| 20260506050521 | 67 | 201 | 3.5 | 3.5 | 0.00 | 0.00 | 0.00 | 74 | 1013.6 |
| 20260506045011 | 68 | 23 | 0.0 | 5.2 | 0.00 | 0.00 | 0.00 | 73 | 1014.1 |
| 20260506044510 | 68 | 252 | 2.6 | 7.8 | 0.00 | 0.00 | 0.00 | 73 | 1013.9 |
| 20260506044006 | 68 | 29 | 0.9 | 9.6 | 0.00 | 0.00 | 0.00 | 72 | 1013.9 |
| 20260506043503 | 69 | 270 | 0.0 | 7.8 | 0.00 | 0.00 | 0.00 | 72 | 1013.8 |
| 20260506043001 | 69 | 210 | 3.5 | 5.2 | 0.00 | 0.00 | 0.00 | 72 | 1013.7 |
| 20260506042501 | 69 | 191 | 2.6 | 6.1 | 0.00 | 0.00 | 0.00 | 72 | 1013.6 |
| 20260506041958 | 69 | 327 | 0.0 | 6.1 | 0.00 | 0.00 | 0.00 | 71 | 1013.7 |
| 20260506041456 | 69 | 60 | 4.3 | 9.6 | 0.00 | 0.00 | 0.00 | 71 | 1013.9 |
| 20260506040953 | 69 | 87 | 2.6 | 3.5 | 0.00 | 0.00 | 0.00 | 71 | 1013.7 |
| 20260506040450 | 69 | 303 | 0.0 | 8.7 | 0.00 | 0.00 | 0.00 | 70 | 1013.9 |
| 20260506035946 | 69 | 140 | 1.7 | 11.3 | 0.00 | 0.00 | 0.00 | 70 | 1013.7 |
| 20260506035443 | 69 | 243 | 0.9 | 4.3 | 0.00 | 0.00 | 0.00 | 69 | 1013.7 |
| 20260506034940 | 70 | 97 | 0.9 | 6.1 | 0.00 | 0.00 | 0.00 | 69 | 1013.7 |
| 20260506034438 | 70 | 180 | 0.9 | 7.0 | 0.00 | 0.00 | 0.00 | 69 | 1013.6 |
| 20260506033934 | 70 | 206 | 0.0 | 2.6 | 0.00 | 0.00 | 0.00 | 68 | 1013.7 |
| 20260506033432 | 70 | 162 | 5.2 | 9.6 | 0.00 | 0.00 | 0.00 | 68 | 1013.7 |
| 20260506032928 | 70 | 210 | 2.6 | 6.1 | 0.00 | 0.00 | 0.00 | 67 | 1013.8 |
| 20260506032425 | 70 | 204 | 1.7 | 3.5 | 0.00 | 0.00 | 0.00 | 67 | 1013.8 |
| 20260506031922 | 70 | 215 | 3.5 | 4.3 | 0.00 | 0.00 | 0.00 | 66 | 1013.5 |
| 20260506031419 | 71 | 165 | 3.5 | 7.0 | 0.00 | 0.00 | 0.00 | 65 | 1013.5 |
| 20260506030917 | 70 | 202 | 1.7 | 2.6 | 0.00 | 0.00 | 0.00 | 65 | 1013.7 |
| 20260506030415 | 70 | 191 | 1.7 | 3.5 | 0.00 | 0.00 | 0.00 | 64 | 1013.4 |
| 20260506025911 | 71 | 151 | 0.9 | 6.1 | 0.00 | 0.00 | 0.00 | 63 | 1013.6 |
| 20260506025409 | 71 | 236 | 2.6 | 3.5 | 0.00 | 0.00 | 0.00 | 62 | 1013.5 |
| 20260506024905 | 71 | 353 | 0.9 | 7.0 | 0.00 | 0.00 | 0.00 | 61 | 1013.8 |
| 20260506024402 | 71 | 184 | 1.7 | 3.5 | 0.00 | 0.00 | 0.00 | 61 | 1013.6 |
| 20260506023858 | 71 | 139 | 1.7 | 4.3 | 0.00 | 0.00 | 0.00 | 61 | 1013.7 |
| 20260506023355 | 71 | 185 | 2.6 | 4.3 | 0.00 | 0.00 | 0.00 | 60 | 1013.9 |
| 20260506022851 | 71 | 185 | 2.6 | 4.3 | 0.00 | 0.00 | 0.00 | 60 | 1013.5 |
| 20260506022349 | 71 | 195 | 0.0 | 1.7 | 0.00 | 0.00 | 0.00 | 60 | 1013.7 |
| 20260506021847 | 71 | 180 | 1.7 | 4.3 | 0.00 | 0.00 | 0.00 | 59 | 1013.6 |
| 20260506021344 | 71 | 140 | 2.6 | 4.3 | 0.00 | 0.00 | 0.00 | 58 | 1013.9 |
| 20260506020840 | 72 | 192 | 1.7 | 5.2 | 0.00 | 0.00 | 0.00 | 58 | 1013.4 |
| 20260506020339 | 72 | 209 | 0.0 | 1.7 | 0.00 | 0.00 | 0.00 | 58 | 1013.5 |
| 20260506015836 | 72 | 192 | 1.7 | 3.5 | 0.00 | 0.00 | 0.00 | 57 | 1013.4 |
| 20260506015333 | 72 | 187 | 0.0 | 1.7 | 0.00 | 0.00 | 0.00 | 57 | 1013.3 |
| 20260506014830 | 73 | 180 | 0.0 | 3.5 | 0.00 | 0.00 | 0.00 | 56 | 1013.4 |
| 20260506014327 | 73 | 199 | 2.6 | 5.2 | 0.00 | 0.00 | 0.00 | 55 | 1013.2 |
| 20260506013823 | 73 | 157 | 0.0 | 5.2 | 0.00 | 0.00 | 0.00 | 55 | 1013.1 |
| 20260506013321 | 73 | 150 | 1.7 | 2.6 | 0.00 | 0.00 | 0.00 | 55 | 1013.2 |
| 20260506012817 | 73 | 145 | 2.6 | 6.1 | 0.00 | 0.00 | 0.00 | 54 | 1013.0 |
| 20260506012314 | 74 | 48 | 0.0 | 7.0 | 0.00 | 0.00 | 0.00 | 53 | 1013.3 |
| 20260506011812 | 74 | 236 | 3.5 | 5.2 | 0.00 | 0.00 | 0.00 | 53 | 1013.2 |
| 20260506011308 | 74 | 212 | 2.6 | 4.3 | 0.00 | 0.00 | 0.00 | 53 | 1012.9 |
| 20260506010806 | 74 | 180 | 2.6 | 5.2 | 0.00 | 0.00 | 0.00 | 53 | 1013.1 |
| 20260506010303 | 74 | 185 | 1.7 | 4.3 | 0.00 | 0.00 | 0.00 | 53 | 1013.0 |
| 20260506005800 | 74 | 140 | 0.0 | 2.6 | 0.00 | 0.00 | 0.00 | 53 | 1012.9 |
| 20260506005257 | 74 | 285 | 0.9 | 3.5 | 0.00 | 0.00 | 0.00 | 53 | 1012.8 |
| 20260506004753 | 74 | 208 | 0.0 | 4.3 | 0.00 | 0.00 | 0.00 | 53 | 1012.7 |
| 20260506004251 | 74 | 85 | 1.7 | 2.6 | 0.00 | 0.00 | 0.00 | 52 | 1012.7 |
| 20260506003746 | 75 | 180 | 0.9 | 4.3 | 0.00 | 0.00 | 0.00 | 51 | 1012.8 |
| 20260506003243 | 75 | 180 | 0.0 | 4.3 | 0.00 | 0.00 | 0.00 | 51 | 1012.7 |
| 20260506002739 | 75 | 71 | 0.9 | 4.3 | 0.00 | 0.00 | 0.00 | 50 | 1012.6 |
| 20260506002235 | 75 | 212 | 1.7 | 6.1 | 0.00 | 0.00 | 0.00 | 50 | 1012.8 |
| 20260506001731 | 76 | 240 | 2.6 | 6.1 | 0.00 | 0.00 | 0.00 | 49 | 1012.3 |
| 20260506001229 | 76 | 180 | 0.9 | 3.5 | 0.00 | 0.00 | 0.00 | 48 | 1012.5 |
| 20260506000725 | 75 | 238 | 2.6 | 4.3 | 0.00 | 0.00 | 0.00 | 49 | 1012.7 |
| 20260506000223 | 76 | 199 | 0.0 | 4.3 | 0.00 | 0.00 | 0.00 | 48 | 1012.5 |
| 20260505235720 | 76 | 90 | 1.7 | 3.5 | 0.00 | 0.00 | 0.00 | 48 | 1012.4 |
| 20260505235218 | 76 | 105 | 2.6 | 5.2 | 0.00 | 0.00 | 0.00 | 48 | 1012.6 |
| 20260505234715 | 76 | 61 | 2.6 | 2.6 | 0.00 | 0.00 | 0.00 | 47 | 1012.6 |
| 20260505234212 | 77 | 191 | 0.0 | 5.2 | 0.00 | 0.00 | 0.00 | 46 | 1012.4 |
| 20260505233708 | 77 | 178 | 2.6 | 5.2 | 0.00 | 0.00 | 0.00 | 46 | 1012.3 |
| 20260505233206 | 77 | 205 | 2.6 | 5.2 | 0.00 | 0.00 | 0.00 | 46 | 1012.4 |
| 20260505232704 | 77 | 245 | 3.5 | 3.5 | 0.00 | 0.00 | 0.00 | 45 | 1012.5 |
| 20260505232201 | 77 | 124 | 0.0 | 6.1 | 0.00 | 0.00 | 0.00 | 45 | 1012.4 |
| 20260505231657 | 78 | 162 | 0.0 | 2.6 | 0.00 | 0.00 | 0.00 | 45 | 1012.3 |
| 20260505231156 | 78 | 220 | 1.7 | 4.3 | 0.00 | 0.00 | 0.00 | 45 | 1012.4 |
| 20260505230654 | 78 | 282 | 2.6 | 5.2 | 0.00 | 0.00 | 0.00 | 44 | 1012.4 |
| 20260505230150 | 79 | 76 | 5.2 | 5.2 | 0.00 | 0.00 | 0.00 | 44 | 1012.4 |
| 20260505225647 | 79 | 180 | 0.0 | 2.6 | 0.00 | 0.00 | 0.00 | 44 | 1012.5 |
| 20260505225143 | 80 | 201 | 1.7 | 6.1 | 0.00 | 0.00 | 0.00 | 42 | 1012.3 |
| 20260505224639 | 80 | 180 | 4.3 | 8.7 | 0.00 | 0.00 | 0.00 | 42 | 1012.3 |
| 20260505224138 | 80 | 255 | 2.6 | 7.0 | 0.00 | 0.00 | 0.00 | 41 | 1012.4 |
| 20260505223635 | 81 | 210 | 3.5 | 7.8 | 0.00 | 0.00 | 0.00 | 39 | 1012.1 |
| 20260505223130 | 82 | 255 | 3.5 | 4.3 | 0.00 | 0.00 | 0.00 | 40 | 1012.3 |
| 20260505222627 | 82 | 148 | 1.7 | 10.4 | 0.00 | 0.00 | 0.00 | 40 | 1012.3 |
| 20260505222123 | 81 | 256 | 0.0 | 4.3 | 0.00 | 0.00 | 0.00 | 40 | 1012.3 |
| 20260505221620 | 83 | 239 | 0.0 | 2.6 | 0.00 | 0.00 | 0.00 | 39 | 1012.3 |
| 20260505221116 | 83 | 72 | 1.7 | 3.5 | 0.00 | 0.00 | 0.00 | 38 | 1011.9 |
| 20260505220614 | 82 | 63 | 3.5 | 6.1 | 0.00 | 0.00 | 0.00 | 39 | 1012.2 |
| 20260505220112 | 82 | 210 | 5.2 | 8.7 | 0.00 | 0.00 | 0.00 | 38 | 1012.2 |
| 20260505215609 | 82 | 216 | 2.6 | 14.8 | 0.00 | 0.00 | 0.00 | 38 | 1012.2 |
| 20260505215107 | 82 | 217 | 2.6 | 2.6 | 0.00 | 0.00 | 0.00 | 37 | 1012.1 |
| 20260505214605 | 82 | 148 | 6.1 | 6.1 | 0.00 | 0.00 | 0.00 | 38 | 1011.7 |
| 20260505214102 | 82 | 173 | 2.6 | 5.2 | 0.00 | 0.00 | 0.00 | 37 | 1012.0 |
| 20260505213559 | 83 | 168 | 1.7 | 1.7 | 0.00 | 0.00 | 0.00 | 38 | 1012.0 |
| 20260505213056 | 84 | 82 | 0.0 | 6.1 | 0.00 | 0.00 | 0.00 | 36 | 1011.9 |
| 20260505212552 | 83 | 43 | 0.0 | 10.4 | 0.00 | 0.00 | 0.00 | 35 | 1012.0 |
| 20260505212050 | 83 | 52 | 6.1 | 7.0 | 0.00 | 0.00 | 0.00 | 36 | 1012.1 |
| 20260505211546 | 84 | 255 | 1.7 | 6.1 | 0.00 | 0.00 | 0.00 | 35 | 1012.0 |
| 20260505211043 | 84 | 285 | 4.3 | 7.8 | 0.00 | 0.00 | 0.00 | 35 | 1011.9 |
| 20260505210540 | 84 | 283 | 1.7 | 7.0 | 0.00 | 0.00 | 0.00 | 34 | 1012.1 |
| 20260505210037 | 84 | 98 | 0.9 | 5.2 | 0.00 | 0.00 | 0.00 | 34 | 1011.9 |
| 20260505205535 | 83 | 235 | 1.7 | 11.3 | 0.00 | 0.00 | 0.00 | 34 | 1011.8 |
| 20260505205032 | 84 | 222 | 2.6 | 6.1 | 0.00 | 0.00 | 0.00 | 32 | 1011.7 |
| 20260505204530 | 86 | 349 | 2.6 | 7.8 | 0.00 | 0.00 | 0.00 | 31 | 1011.9 |
| 20260505204026 | 86 | 226 | 3.5 | 7.0 | 0.00 | 0.00 | 0.00 | 32 | 1011.8 |
| 20260505203523 | 86 | 165 | 1.7 | 9.6 | 0.00 | 0.00 | 0.00 | 31 | 1011.9 |
| 20260505203020 | 87 | 225 | 5.2 | 7.8 | 0.00 | 0.00 | 0.00 | 31 | 1011.8 |
| 20260505202516 | 86 | 281 | 1.7 | 4.3 | 0.00 | 0.00 | 0.00 | 32 | 1012.0 |
| 20260505202012 | 86 | 286 | 2.6 | 6.1 | 0.00 | 0.00 | 0.00 | 31 | 1012.0 |
| 20260505201510 | 87 | 241 | 4.3 | 4.3 | 0.00 | 0.00 | 0.00 | 31 | 1012.1 |
| 20260505201007 | 86 | 216 | 7.8 | 7.8 | 0.00 | 0.00 | 0.00 | 30 | 1012.1 |
| 20260505200505 | 86 | 228 | 0.0 | 11.3 | 0.00 | 0.00 | 0.00 | 31 | 1012.1 |
| 20260505200000 | 87 | 286 | 1.7 | 5.2 | 0.00 | 0.00 | 0.00 | 30 | 1012.2 |
| 20260505195457 | 86 | 261 | 0.0 | 7.0 | 0.00 | 0.00 | 0.00 | 30 | 1012.2 |
| 20260505194955 | 86 | 262 | 1.7 | 9.6 | 0.00 | 0.00 | 0.00 | 32 | 1012.0 |
| 20260505194452 | 86 | 198 | 1.7 | 11.3 | 0.00 | 0.00 | 0.00 | 32 | 1012.2 |
| 20260505193952 | 86 | 217 | 4.3 | 5.2 | 0.00 | 0.00 | 0.00 | 32 | 1012.4 |
| 20260505193450 | 86 | 257 | 2.6 | 6.1 | 0.00 | 0.00 | 0.00 | 31 | 1012.4 |
| 20260505192947 | 87 | 203 | 0.0 | 4.3 | 0.00 | 0.00 | 0.00 | 32 | 1012.4 |
| 20260505192446 | 88 | 231 | 4.3 | 4.3 | 0.00 | 0.00 | 0.00 | 32 | 1012.5 |
| 20260505191943 | 87 | 175 | 7.0 | 7.8 | 0.00 | 0.00 | 0.00 | 32 | 1012.6 |
| 20260505191441 | 87 | 288 | 2.6 | 7.0 | 0.00 | 0.00 | 0.00 | 31 | 1012.9 |
| 20260505190938 | 86 | 165 | 3.5 | 9.6 | 0.00 | 0.00 | 0.00 | 30 | 1012.7 |
| 20260505190433 | 86 | 225 | 4.3 | 7.0 | 0.00 | 0.00 | 0.00 | 29 | 1012.8 |
| 20260505185928 | 85 | 265 | 1.7 | 8.7 | 0.00 | 0.00 | 0.00 | 30 | 1012.9 |
| 20260505185426 | 85 | 168 | 0.9 | 9.6 | 0.00 | 0.00 | 0.00 | 31 | 1013.2 |
| 20260505184922 | 86 | 258 | 3.5 | 8.7 | 0.00 | 0.00 | 0.00 | 31 | 1013.0 |
| 20260505184420 | 87 | 241 | 1.7 | 6.1 | 0.00 | 0.00 | 0.00 | 32 | 1013.1 |
| 20260505183916 | 86 | 282 | 3.5 | 7.8 | 0.00 | 0.00 | 0.00 | 30 | 1013.2 |
| 20260505183413 | 87 | 188 | 2.6 | 8.7 | 0.00 | 0.00 | 0.00 | 32 | 1013.2 |
| 20260505182910 | 86 | 194 | 0.9 | 7.8 | 0.00 | 0.00 | 0.00 | 32 | 1013.4 |
| 20260505182407 | 86 | 33 | 4.3 | 8.7 | 0.00 | 0.00 | 0.00 | 34 | 1013.5 |
| 20260505181903 | 85 | 237 | 6.1 | 11.3 | 0.00 | 0.00 | 0.00 | 33 | 1013.4 |
| 20260505181400 | 85 | 60 | 1.7 | 5.2 | 0.00 | 0.00 | 0.00 | 33 | 1013.5 |
| 20260505180857 | 85 | 208 | 3.5 | 6.1 | 0.00 | 0.00 | 0.00 | 34 | 1013.7 |
| 20260505180353 | 85 | 279 | 1.7 | 6.1 | 0.00 | 0.00 | 0.00 | 37 | 1013.8 |
| 20260505175850 | 84 | 306 | 3.5 | 9.6 | 0.00 | 0.00 | 0.00 | 36 | 1013.8 |
| 20260505175346 | 84 | 306 | 0.9 | 7.8 | 0.00 | 0.00 | 0.00 | 35 | 1013.8 |
| 20260505174843 | 85 | 151 | 1.7 | 6.1 | 0.00 | 0.00 | 0.00 | 36 | 1013.7 |
| 20260505174341 | 85 | 345 | 1.7 | 6.1 | 0.00 | 0.00 | 0.00 | 39 | 1013.8 |
| 20260505173836 | 84 | 199 | 4.3 | 8.7 | 0.00 | 0.00 | 0.00 | 39 | 1014.0 |
| 20260505173333 | 84 | 236 | 2.6 | 3.5 | 0.00 | 0.00 | 0.00 | 40 | 1014.1 |
| 20260505172830 | 83 | 240 | 0.9 | 6.1 | 0.00 | 0.00 | 0.00 | 41 | 1014.3 |
| 20260505172328 | 84 | 219 | 3.5 | 4.3 | 0.00 | 0.00 | 0.00 | 42 | 1014.2 |
| 20260505171827 | 82 | 253 | 4.3 | 4.3 | 0.00 | 0.00 | 0.00 | 44 | 1014.3 |
| 20260505171325 | 83 | 212 | 2.6 | 7.8 | 0.00 | 0.00 | 0.00 | 45 | 1014.3 |
| 20260505170821 | 82 | 190 | 2.6 | 9.6 | 0.00 | 0.00 | 0.00 | 43 | 1014.3 |
| 20260505170318 | 82 | 300 | 0.0 | 7.0 | 0.00 | 0.00 | 0.00 | 43 | 1014.1 |
| 20260505165813 | 82 | 199 | 1.7 | 6.1 | 0.00 | 0.00 | 0.00 | 43 | 1014.3 |
| 20260505165309 | 84 | 221 | 1.7 | 4.3 | 0.00 | 0.00 | 0.00 | 45 | 1014.5 |
| 20260505164805 | 82 | 160 | 0.9 | 4.3 | 0.00 | 0.00 | 0.00 | 43 | 1014.3 |
| 20260505164302 | 80 | 235 | 2.6 | 8.7 | 0.00 | 0.00 | 0.00 | 47 | 1014.4 |
| 20260505163800 | 80 | 185 | 5.2 | 8.7 | 0.00 | 0.00 | 0.00 | 45 | 1014.5 |
| 20260505163259 | 81 | 168 | 1.7 | 5.2 | 0.00 | 0.00 | 0.00 | 46 | 1014.4 |
| 20260505162756 | 81 | 208 | 5.2 | 5.2 | 0.00 | 0.00 | 0.00 | 46 | 1014.8 |
| 20260505162253 | 80 | 172 | 5.2 | 5.2 | 0.00 | 0.00 | 0.00 | 47 | 1014.7 |
| 20260505161750 | 81 | 81 | 2.6 | 2.6 | 0.00 | 0.00 | 0.00 | 46 | 1015.0 |
| 20260505161247 | 80 | 283 | 1.7 | 6.1 | 0.00 | 0.00 | 0.00 | 45 | 1015.1 |
| 20260505160744 | 81 | 246 | 3.5 | 3.5 | 0.00 | 0.00 | 0.00 | 47 | 1015.0 |
| 20260505160242 | 78 | 249 | 4.3 | 7.8 | 0.00 | 0.00 | 0.00 | 48 | 1015.3 |
| 20260505153221 | 79 | 232 | 4.3 | 4.3 | 0.00 | 0.00 | 0.00 | 50 | 1015.2 |
| 20260505152718 | 78 | 225 | 2.6 | 6.1 | 0.00 | 0.00 | 0.00 | 50 | 1015.4 |
| 20260505152214 | 77 | 248 | 2.6 | 5.2 | 0.00 | 0.00 | 0.00 | 51 | 1015.5 |
| 20260505151709 | 77 | 190 | 1.7 | 4.3 | 0.00 | 0.00 | 0.00 | 53 | 1015.3 |
| 20260505151207 | 76 | 264 | 1.7 | 5.2 | 0.00 | 0.00 | 0.00 | 52 | 1015.3 |
| 20260505150703 | 74 | 327 | 3.5 | 6.1 | 0.00 | 0.00 | 0.00 | 52 | 1015.1 |
| 20260505150200 | 76 | 4 | 2.6 | 3.5 | 0.00 | 0.00 | 0.00 | 52 | 1015.2 |
| 20260505140633 | 73 | 237 | 1.7 | 4.3 | 0.00 | 0.00 | 0.00 | 55 | 1015.2 |
| 20260505140130 | 74 | 270 | 0.0 | 2.6 | 0.00 | 0.00 | 0.00 | 55 | 1015.1 |
| 20260505124543 | 67 | 330 | 0.0 | 5.2 | 0.00 | 0.00 | 0.00 | 67 | 1015.3 |
| 20260505124040 | 67 | 235 | 4.3 | 6.1 | 0.00 | 0.00 | 0.00 | 68 | 1015.6 |
| 20260505123536 | 66 | 230 | 2.6 | 2.6 | 0.00 | 0.00 | 0.00 | 69 | 1015.5 |
| 20260505123032 | 65 | 270 | 0.0 | 5.2 | 0.00 | 0.00 | 0.00 | 69 | 1015.7 |
| 20260505122530 | 64 | 262 | 0.9 | 2.6 | 0.00 | 0.00 | 0.00 | 71 | 1015.7 |
| 20260505122026 | 64 | 346 | 1.7 | 3.5 | 0.00 | 0.00 | 0.00 | 71 | 1015.4 |
| 20260505121523 | 64 | 228 | 0.0 | 6.1 | 0.00 | 0.00 | 0.00 | 70 | 1015.5 |
| 20260505121020 | 64 | 309 | 2.6 | 3.5 | 0.00 | 0.00 | 0.00 | 69 | 1015.3 |
| 20260505120516 | 64 | 165 | 1.7 | 2.6 | 0.00 | 0.00 | 0.00 | 71 | 1015.5 |
| 20260505120011 | 64 | 180 | 0.0 | 2.6 | 0.00 | 0.00 | 0.00 | 72 | 1015.2 |
| 20260505115506 | 65 | 180 | 0.9 | 1.7 | 0.00 | 0.00 | 0.00 | 70 | 1015.2 |
| 20260505115005 | 64 | 270 | 0.0 | 2.6 | 0.00 | 0.00 | 0.00 | 72 | 1015.3 |
| 20260505114501 | 63 | 105 | 0.0 | 2.6 | 0.00 | 0.00 | 0.00 | 74 | 1015.2 |
| 20260505113957 | 63 | 237 | 2.6 | 2.6 | 0.00 | 0.00 | 0.00 | 73 | 1015.2 |
| 20260505113454 | 62 | 262 | 2.6 | 3.5 | 0.00 | 0.00 | 0.00 | 74 | 1015.0 |
| 20260505112950 | 62 | 191 | 0.0 | 2.6 | 0.00 | 0.00 | 0.00 | 75 | 1015.2 |
| 20260505112447 | 61 | 173 | 3.5 | 3.5 | 0.00 | 0.00 | 0.00 | 75 | 1015.1 |
| 20260505111944 | 61 | 90 | 1.7 | 2.6 | 0.00 | 0.00 | 0.00 | 76 | 1014.9 |
| 20260505111438 | 60 | 233 | 0.0 | 2.6 | 0.00 | 0.00 | 0.00 | 78 | 1015.0 |
| 20260505110934 | 59 | 61 | 1.7 | 3.5 | 0.00 | 0.00 | 0.00 | 80 | 1014.9 |
| 20260505110432 | 58 | 180 | 0.0 | 1.7 | 0.00 | 0.00 | 0.00 | 83 | 1014.9 |
| 20260505101903 | 56 | 237 | 0.0 | 1.7 | 0.00 | 0.00 | 0.00 | 84 | 1014.5 |
| 20260505101357 | 57 | 262 | 0.0 | 1.7 | 0.00 | 0.00 | 0.00 | 83 | 1014.6 |
| 20260505100853 | 56 | 263 | 0.0 | 0.9 | 0.00 | 0.00 | 0.00 | 83 | 1014.6 |
| 20260505100350 | 57 | 97 | 0.0 | 0.0 | 0.00 | 0.00 | 0.00 | 83 | 1014.7 |
| 20260505095846 | 57 | 97 | 0.0 | 4.3 | 0.00 | 0.00 | 0.00 | 83 | 1014.7 |
| 20260505095344 | 57 | 243 | 0.0 | 1.7 | 0.00 | 0.00 | 0.00 | 82 | 1014.6 |
| 20260505094839 | 57 | 8 | 0.0 | 1.7 | 0.00 | 0.00 | 0.00 | 82 | 1014.6 |
| 20260505094336 | 58 | 209 | 0.0 | 4.3 | 0.00 | 0.00 | 0.00 | 81 | 1014.4 |
| 20260505093832 | 58 | 263 | 2.6 | 2.6 | 0.00 | 0.00 | 0.00 | 80 | 1014.4 |
| 20260505093330 | 58 | 154 | 0.9 | 1.7 | 0.00 | 0.00 | 0.00 | 80 | 1014.3 |
| 20260505092827 | 58 | 151 | 0.0 | 0.9 | 0.00 | 0.00 | 0.00 | 80 | 1014.4 |
| 20260505092325 | 58 | 194 | 0.0 | 0.9 | 0.00 | 0.00 | 0.00 | 80 | 1014.2 |
| 20260505091821 | 59 | 250 | 2.6 | 2.6 | 0.00 | 0.00 | 0.00 | 79 | 1014.2 |
| 20260505091320 | 59 | 320 | 1.7 | 2.6 | 0.00 | 0.00 | 0.00 | 79 | 1014.1 |
| 20260505090817 | 59 | 203 | 0.0 | 1.7 | 0.00 | 0.00 | 0.00 | 78 | 1014.1 |
| 20260505090316 | 59 | 210 | 1.7 | 2.6 | 0.00 | 0.00 | 0.00 | 78 | 1014.2 |
| 20260505085812 | 59 | 90 | 0.0 | 4.3 | 0.00 | 0.00 | 0.00 | 77 | 1014.2 |
| 20260505085310 | 59 | 246 | 1.7 | 1.7 | 0.00 | 0.00 | 0.00 | 78 | 1014.2 |
| 20260505084808 | 60 | 240 | 1.7 | 2.6 | 0.00 | 0.00 | 0.00 | 77 | 1014.0 |
| 20260505084306 | 59 | 194 | 3.5 | 3.5 | 0.00 | 0.00 | 0.00 | 77 | 1014.0 |
| 20260505083803 | 60 | 206 | 0.9 | 3.5 | 0.00 | 0.00 | 0.00 | 76 | 1014.1 |
| 20260505083300 | 60 | 251 | 0.0 | 1.7 | 0.00 | 0.00 | 0.00 | 77 | 1014.2 |
| 20260505082756 | 60 | 5 | 0.0 | 1.7 | 0.00 | 0.00 | 0.00 | 76 | 1014.3 |
| 20260505082253 | 60 | 234 | 0.0 | 3.5 | 0.00 | 0.00 | 0.00 | 76 | 1014.1 |
| 20260505081749 | 60 | 243 | 1.7 | 2.6 | 0.00 | 0.00 | 0.00 | 76 | 1014.2 |
| 20260505081246 | 60 | 195 | 0.0 | 0.9 | 0.00 | 0.00 | 0.00 | 76 | 1014.3 |
| 20260505080743 | 60 | 334 | 0.9 | 1.7 | 0.00 | 0.00 | 0.00 | 76 | 1014.2 |
| 20260505080238 | 60 | 168 | 0.9 | 2.6 | 0.00 | 0.00 | 0.00 | 75 | 1014.2 |
| 20260505075735 | 61 | 194 | 0.0 | 1.7 | 0.00 | 0.00 | 0.00 | 75 | 1014.3 |
| 20260505075232 | 61 | 270 | 0.0 | 2.6 | 0.00 | 0.00 | 0.00 | 74 | 1014.2 |
| 20260505074729 | 60 | 282 | 0.0 | 2.6 | 0.00 | 0.00 | 0.00 | 75 | 1014.2 |
| 20260505074226 | 60 | 0 | 0.0 | 0.0 | 0.00 | 0.00 | 0.00 | 75 | 1014.0 |
| 20260505073724 | 61 | 270 | 0.0 | 2.6 | 0.00 | 0.00 | 0.00 | 74 | 1014.0 |
| 20260505073221 | 61 | 345 | 0.0 | 1.7 | 0.00 | 0.00 | 0.00 | 74 | 1014.0 |
| 20260505072717 | 61 | 175 | 0.0 | 1.7 | 0.00 | 0.00 | 0.00 | 74 | 1013.9 |
| 20260505072214 | 61 | 300 | 0.9 | 1.7 | 0.00 | 0.00 | 0.00 | 74 | 1013.9 |
| 20260505071709 | 60 | 203 | 0.0 | 3.5 | 0.00 | 0.00 | 0.00 | 75 | 1013.8 |
| 20260505071207 | 61 | 251 | 0.9 | 1.7 | 0.00 | 0.00 | 0.00 | 74 | 1013.8 |
| 20260505070704 | 61 | 203 | 0.9 | 1.7 | 0.00 | 0.00 | 0.00 | 74 | 1013.9 |
| 20260505070200 | 61 | 33 | 4.3 | 4.3 | 0.00 | 0.00 | 0.00 | 73 | 1013.9 |
| 20260505065656 | 61 | 186 | 0.0 | 2.6 | 0.00 | 0.00 | 0.00 | 73 | 1013.8 |
| 20260505065153 | 61 | 225 | 1.7 | 3.5 | 0.00 | 0.00 | 0.00 | 72 | 1013.7 |
| 20260505064650 | 61 | 0 | 0.9 | 1.7 | 0.00 | 0.00 | 0.00 | 72 | 1013.7 |
| 20260505064149 | 62 | 255 | 0.0 | 3.5 | 0.00 | 0.00 | 0.00 | 71 | 1013.8 |
| 20260505063646 | 62 | 220 | 2.6 | 3.5 | 0.00 | 0.00 | 0.00 | 71 | 1013.6 |
| 20260505063142 | 62 | 168 | 0.0 | 4.3 | 0.00 | 0.00 | 0.00 | 70 | 1014.0 |
| 20260505062638 | 62 | 151 | 1.7 | 2.6 | 0.00 | 0.00 | 0.00 | 70 | 1013.8 |
| 20260505062135 | 62 | 210 | 1.7 | 2.6 | 0.00 | 0.00 | 0.00 | 70 | 1013.7 |
| 20260505061633 | 62 | 186 | 0.0 | 2.6 | 0.00 | 0.00 | 0.00 | 70 | 1013.8 |
| 20260505061131 | 62 | 212 | 0.0 | 6.1 | 0.00 | 0.00 | 0.00 | 69 | 1013.7 |
| 20260505060628 | 62 | 194 | 0.0 | 2.6 | 0.00 | 0.00 | 0.00 | 69 | 1013.7 |
| 20260505060124 | 62 | 8 | 0.0 | 1.7 | 0.00 | 0.00 | 0.00 | 69 | 1013.6 |
| 20260505055620 | 62 | 90 | 1.7 | 2.6 | 0.00 | 0.00 | 0.00 | 69 | 1013.9 |